[[{"header":{"parameterUnit":"m.s-1","parameterCategory":1,"la1":30.2991,"la2":30.254,"lo1":-89.0895,"lo2":-89.0444,"dy":0.0017,"dx":0.0017,"nx":28,"ny":28,"refTime":"2025-08-01T21:00:00:Z","depth":0,"parameterNumber":2,"parameterNumberName":"U-component_of_WINDS"},"data":[0,0,0,0,0,0,0,0,0,0,0,0,0,0,0,0,0,0,0,0,0,0,0,0,0,0,0,0,0,0,0,0,0,0,0,0,0,0,0,0,0,0,0,0,0,0,0,0,0,0,0,0,0,0,0,0,0,0,0.4303,0.4304,0,0.4389,0.439,0.4391,0.4364,0.4362,0.436,0.4358,0.4452,0.4456,0.4461,0,0,0,0,0,0,0,0,0,0,0,0,0,0.4123,0.4126,0.4303,0.4304,0.4305,0.4388,0.439,0.4391,0.4364,0.4362,0.436,0.4357,0.4451,0.4456,0.4461,0,0,0,0,0,0,0,0,0,0,0,0,0,0.4204,0.4127,0.4303,0.4302,0.4303,0.4388,0.439,0.4391,0.4365,0.4362,0.4359,0.4356,0.4449,0.4455,0.4462,0.4556,0,0,0.4481,0.4484,0,0,0,0,0,0,0,0,0.42,0.4211,0.4301,0.4302,0.4303,0.4363,0.436,0.4447,0.4365,0.4341,0.4358,0.4355,0.4425,0.4433,0.4456,0.456,0.4564,0.4482,0.4485,0.4488,0.449,0,0,0,0,0,0,0,0.4194,0.4207,0.4337,0.4302,0.4304,0.4299,0.4307,0.4377,0.4398,0.4343,0.4341,0.4351,0.4425,0.445,0.4458,0.4566,0.4481,0.4487,0.4491,0.4493,0.4752,0.4755,0,0,0,0,0,0,0.4187,0.4203,0.4334,0.434,0.4243,0.4304,0.4314,0.4346,0.4397,0.4402,0.4354,0.435,0.444,0.445,0.4461,0.4575,0.4488,0.4494,0.4498,0.4749,0.4753,0.4756,0,0,0,0,0,0,0.4183,0.4199,0.4331,0.4271,0.4287,0.431,0.4347,0.4349,0.4374,0.4405,0.4409,0.4374,0.4438,0.4452,0.4532,0.4578,0.4497,0.4503,0.4746,0.4751,0.4755,0.4803,0,0,0,0,0,0,0.4178,0.4198,0.4232,0.4272,0.429,0.4399,0.435,0.4353,0.4384,0.438,0.4425,0.443,0.4437,0.4523,0.4538,0.4585,0.4508,0.4742,0.4748,0.4753,0.4798,0.4809,0.4818,0,0,0,0,0,0.4172,0.4244,0.4234,0.425,0.4334,0.4402,0.4413,0.4417,0.4388,0.4424,0.4444,0.4429,0.457,0.4531,0.4548,0.4598,0.4739,0.4746,0.4753,0.4793,0.4807,0.4818,0,0,0,0,0,0,0.4212,0.4249,0.4239,0.4325,0.436,0.4397,0.4443,0.4432,0.4478,0.4472,0.4478,0.4489,0.4571,0.4592,0.4548,0.4692,0.465,0.4661,0.4675,0.4688,0.4698,0.4692,0.4513,0,0,0,0,0,0.423,0.428,0.4311,0.4384,0.4402,0.4419,0.4449,0.4449,0.4487,0.4502,0.4528,0.4567,0.462,0.4655,0.4706,0.48,0.481,0.4842,0.4853,0.4861,0.4871,0.4923,0.4938,0.4779,0.4779,0.4779,0,0,0.427,0.4296,0.4328,0.4393,0.442,0.4474,0.4432,0.4491,0.4531,0.4512,0.4589,0.4609,0.4653,0.4741,0.4781,0.4761,0.4917,0.487,0.4876,0.4882,0.4932,0.4947,0.496,0.4784,0.4783,0.4782,0,0,0.4369,0.4393,0.4458,0.4485,0.4526,0.4537,0.4552,0.4591,0.4603,0.4679,0.4666,0.4715,0.4806,0.4838,0.4866,0.4977,0.4966,0.4993,0.5048,0.5099,0.5112,0.5123,0.5164,0.5178,0.5003,0.5003,0.5003,0,0.4414,0.4492,0.4493,0.4552,0.4582,0.4564,0.463,0.4658,0.4714,0.4736,0.4712,0.4826,0.4854,0.4949,0.4976,0.4999,0.5018,0.4989,0.511,0.5121,0.5131,0.517,0.5185,0.5006,0.5006,0.5005,0.5005,0,0.4545,0.46,0.4647,0.4699,0.4734,0.4797,0.4809,0.4844,0.4842,0.4855,0.4934,0.4967,0.5024,0.5047,0.5045,0.5142,0.5129,0.5107,0.5066,0.515,0.5186,0.5201,0.501,0.5009,0.5008,0.5008,0,0,0.4674,0.4724,0.4742,0.4765,0.4809,0.4852,0.4915,0.4968,0.4999,0.5038,0.5092,0.5169,0.5149,0.5181,0.5183,0.5228,0.5315,0.5201,0.5202,0.5222,0.5424,0.5441,0.5458,0.5307,0.5309,0.5312,0.5421,0,0.4777,0.4884,0.4887,0.4986,0.5037,0.5021,0.5075,0.5109,0.5124,0.5171,0.5188,0.5242,0.5212,0.5231,0.5274,0.5295,0.5356,0.5287,0.5359,0.5361,0.5349,0.5477,0.5495,0.5596,0.5435,0.5438,0.5439,0,0.4913,0.4954,0.5058,0.5094,0.5116,0.5164,0.5214,0.5258,0.5297,0.5304,0.5339,0.5334,0.54,0.5355,0.5447,0.54,0.5429,0.5444,0.5448,0.5456,0.5406,0.549,0.5629,0.5645,0.5462,0.546,0.5458,0,0.4997,0.5079,0.5152,0.5172,0.5216,0.5251,0.5271,0.5306,0.5338,0.5382,0.5403,0.5455,0.5483,0.5524,0.5534,0.5501,0.5626,0.5582,0.5636,0.5636,0.5664,0.5663,0.5812,0.5681,0.5681,0.5681,0.5681,0,0.5114,0.5178,0.519,0.5235,0.5307,0.531,0.5382,0.5399,0.5431,0.548,0.547,0.5517,0.5527,0.5577,0.5585,0.566,0.5673,0.5683,0.5684,0.5684,0.5683,0.5705,0.5698,0.5685,0.5684,0.5683,0.5683,0,0.5221,0.5231,0.5309,0.5343,0.5353,0.5405,0.5436,0.548,0.5492,0.5555,0.557,0.5591,0.5649,0.5662,0.5732,0.5738,0.5827,0.5821,0.5813,0.5813,0.5867,0.5862,0.6036,0.6059,0.5912,0.5914,0.5915,0,0.5295,0.5344,0.5383,0.5414,0.5435,0.5486,0.5518,0.5522,0.5557,0.5603,0.5642,0.5698,0.5744,0.5837,0.586,0.5913,0.591,0.5967,0.5918,0.5916,0.5912,0.5909,0.5915,0.5977,0.5978,0.598,0.5981,0,0.5426,0.5428,0.5474,0.5521,0.5559,0.5597,0.5634,0.5661,0.567,0.571,0.5767,0.5802,0.5872,0.5929,0.5982,0.6005,0.5996,0.5995,0.6011,0.6012,0.6006,0.6011,0.584,0.5992,0.5991,0.599,0.5989,0.5989,0.552,0.5562,0.5596,0.5647,0.5674,0.5709,0.5751,0.5769,0.5816,0.5872,0.5872,0.5936,0.5974,0.6044,0.607,0.6121,0.6103,0.6126,0.6132,0.6137,0.6142,0.5996,0.613,0.613,0.613,0.613,0.6129,0,0.5651,0.5671,0.5718,0.5768,0.5809,0.5793,0.5833,0.5869,0.5924,0.5959,0.6003,0.607,0.6124,0.6151,0.6205,0.6241,0.6238,0.6255,0.6254,0.6259,0.6154,0.6136,0.6257,0.6257,0.6257,0.6257,0.6257,0.6257,0.5724,0.5795,0.5802,0.5888,0.5908,0.5968,0.5992,0.6025,0.6052,0.6127,0.6171,0.6187,0.6219,0.6276,0.6326,0.6332,0.6353,0.6373,0.6378,0.628,0.6267,0.6254,0.6237,0.6377,0.6378,0.6479,0.648,0.648]},{"header":{"parameterUnit":"m.s-1","parameterCategory":1,"la1":30.2991,"la2":30.254,"lo1":-89.0895,"lo2":-89.0444,"dy":0.0017,"dx":0.0017,"nx":28,"ny":28,"refTime":"2025-08-01T21:00:00:Z","depth":0,"parameterNumber":3,"parameterNumberName":"V-component_of_WINDS"},"data":[0,0,0,0,0,0,0,0,0,0,0,0,0,0,0,0,0,0,0,0,0,0,0,0,0,0,0,0,0,0,0,0,0,0,0,0,0,0,0,0,0,0,0,0,0,0,0,0,0,0,0,0,0,0,0,0,0,0,-0.6118,-0.6117,0,-0.6024,-0.6023,-0.6022,-0.6009,-0.6009,-0.601,-0.6011,-0.5913,-0.591,-0.5906,0,0,0,0,0,0,0,0,0,0,0,0,0,-0.6287,-0.6284,-0.6118,-0.6117,-0.6116,-0.6024,-0.6023,-0.6022,-0.6008,-0.6009,-0.6011,-0.6012,-0.5914,-0.591,-0.5906,0,0,0,0,0,0,0,0,0,0,0,0,0,-0.6205,-0.6283,-0.6119,-0.6098,-0.6096,-0.6025,-0.6023,-0.6021,-0.6008,-0.601,-0.6011,-0.6012,-0.5916,-0.5911,-0.5906,-0.5848,0,0,-0.589,-0.5888,0,0,0,0,0,0,0,0,-0.621,-0.6199,-0.6103,-0.61,-0.6096,-0.603,-0.6046,-0.5963,-0.6008,-0.6041,-0.6011,-0.6013,-0.5951,-0.5943,-0.5922,-0.5843,-0.5839,-0.5889,-0.5886,-0.5884,-0.5883,0,0,0,0,0,0,0,-0.6215,-0.6203,-0.6081,-0.6101,-0.6097,-0.6094,-0.6084,-0.6031,-0.599,-0.6039,-0.6037,-0.6026,-0.5949,-0.5927,-0.592,-0.5837,-0.589,-0.5885,-0.5882,-0.588,-0.5708,-0.5707,0,0,0,0,0,0,-0.6225,-0.6208,-0.6084,-0.6078,-0.6158,-0.609,-0.6079,-0.605,-0.599,-0.5983,-0.6025,-0.6026,-0.5935,-0.5926,-0.5916,-0.5846,-0.5884,-0.5879,-0.5876,-0.571,-0.5708,-0.5706,0,0,0,0,0,0,-0.6229,-0.6214,-0.6088,-0.6143,-0.6126,-0.6086,-0.6053,-0.6047,-0.6025,-0.598,-0.5973,-0.601,-0.5936,-0.5923,-0.5865,-0.5842,-0.5877,-0.5872,-0.5711,-0.5709,-0.5707,-0.5703,0,0,0,0,0,0,-0.6233,-0.6215,-0.6193,-0.6142,-0.6124,-0.6038,-0.6052,-0.6044,-0.6016,-0.6016,-0.5964,-0.5957,-0.5936,-0.5873,-0.586,-0.5835,-0.5868,-0.5713,-0.571,-0.5708,-0.5705,-0.5701,-0.5698,0,0,0,0,0,-0.624,-0.6195,-0.6192,-0.6177,-0.6094,-0.6037,-0.6026,-0.6004,-0.6015,-0.5992,-0.5963,-0.5959,-0.5847,-0.5867,-0.5853,-0.5826,-0.5715,-0.5711,-0.5708,-0.5707,-0.5702,-0.5698,0,0,0,0,0,0,-0.6242,-0.6188,-0.6184,-0.6121,-0.6084,-0.6035,-0.6005,-0.5999,-0.5957,-0.5959,-0.5932,-0.5921,-0.5864,-0.5839,-0.5863,-0.5768,-0.5782,-0.5775,-0.5786,-0.5781,-0.5777,-0.5784,-0.5864,0,0,0,0,0,-0.6236,-0.6194,-0.6149,-0.6098,-0.608,-0.6046,-0.602,-0.6006,-0.5966,-0.595,-0.5917,-0.5879,-0.5835,-0.5807,-0.5764,-0.5702,-0.5691,-0.5677,-0.5673,-0.567,-0.5665,-0.5631,-0.5625,-0.5695,-0.5695,-0.5695,0,0,-0.6222,-0.6187,-0.6162,-0.6098,-0.6067,-0.6025,-0.6033,-0.5987,-0.5955,-0.5943,-0.5886,-0.5861,-0.5816,-0.5757,-0.5729,-0.5734,-0.5643,-0.5666,-0.5664,-0.566,-0.5627,-0.5621,-0.5615,-0.5693,-0.5693,-0.5694,0,0,-0.6174,-0.6144,-0.6099,-0.6069,-0.6023,-0.6001,-0.599,-0.5943,-0.5926,-0.5869,-0.5859,-0.5821,-0.5746,-0.5715,-0.569,-0.5633,-0.5627,-0.562,-0.56,-0.5568,-0.5562,-0.5557,-0.5537,-0.5531,-0.5615,-0.5615,-0.5615,0,-0.6162,-0.6098,-0.6076,-0.6031,-0.6004,-0.5992,-0.5947,-0.5919,-0.5861,-0.5842,-0.585,-0.5757,-0.5726,-0.5659,-0.5646,-0.5625,-0.5612,-0.5625,-0.5565,-0.556,-0.5554,-0.5535,-0.5528,-0.5614,-0.5614,-0.5614,-0.5614,0,-0.6086,-0.6042,-0.6011,-0.5957,-0.5926,-0.5881,-0.5853,-0.5824,-0.5814,-0.5791,-0.5734,-0.5697,-0.5647,-0.563,-0.5619,-0.5562,-0.5568,-0.557,-0.5583,-0.5548,-0.5529,-0.5522,-0.5613,-0.5614,-0.5614,-0.5614,0,0,-0.6036,-0.5972,-0.5961,-0.5937,-0.5887,-0.5852,-0.5808,-0.576,-0.5736,-0.5697,-0.5659,-0.5597,-0.56,-0.5571,-0.5557,-0.5528,-0.5487,-0.5535,-0.5533,-0.5527,-0.5424,-0.5422,-0.5414,-0.5484,-0.5482,-0.5481,-0.5428,0,-0.5982,-0.5902,-0.5883,-0.5814,-0.5774,-0.5763,-0.5725,-0.569,-0.5668,-0.5631,-0.5607,-0.5564,-0.5571,-0.5553,-0.5525,-0.5498,-0.5466,-0.5502,-0.5448,-0.5446,-0.5459,-0.5404,-0.5401,-0.5353,-0.542,-0.5419,-0.5418,0,-0.5909,-0.587,-0.5798,-0.5755,-0.5737,-0.5703,-0.5658,-0.5623,-0.5584,-0.557,-0.5539,-0.5528,-0.5481,-0.5498,-0.5434,-0.5459,-0.5436,-0.542,-0.5417,-0.5411,-0.543,-0.5396,-0.5336,-0.5329,-0.5407,-0.5408,-0.5408,0,-0.588,-0.581,-0.5758,-0.5738,-0.5686,-0.5662,-0.5639,-0.5602,-0.5575,-0.5536,-0.5519,-0.5475,-0.5451,-0.5417,-0.5395,-0.5409,-0.5333,-0.5347,-0.5321,-0.5321,-0.5304,-0.5305,-0.524,-0.529,-0.529,-0.529,-0.529,0,-0.5822,-0.5779,-0.5745,-0.5712,-0.5664,-0.5642,-0.5595,-0.5572,-0.5539,-0.5502,-0.5491,-0.5457,-0.543,-0.5392,-0.5374,-0.5325,-0.5314,-0.5302,-0.5297,-0.5302,-0.5304,-0.5286,-0.5289,-0.5288,-0.5289,-0.5289,-0.5289,0,-0.5781,-0.5756,-0.5699,-0.5656,-0.5644,-0.561,-0.5573,-0.5542,-0.5521,-0.5476,-0.5464,-0.5431,-0.5386,-0.5361,-0.5305,-0.5293,-0.5238,-0.5235,-0.5251,-0.5249,-0.5224,-0.5226,-0.5144,-0.5132,-0.5191,-0.519,-0.519,0,-0.5746,-0.5712,-0.5666,-0.5641,-0.5618,-0.5579,-0.5552,-0.553,-0.5502,-0.5456,-0.5431,-0.5386,-0.5349,-0.5279,-0.525,-0.5208,-0.5204,-0.5178,-0.5197,-0.5204,-0.5203,-0.5206,-0.5203,-0.5174,-0.5174,-0.5173,-0.5173,0,-0.5686,-0.5676,-0.5637,-0.5595,-0.5564,-0.553,-0.5496,-0.5476,-0.5448,-0.5418,-0.5373,-0.5345,-0.5289,-0.5245,-0.52,-0.5177,-0.517,-0.5168,-0.5159,-0.5164,-0.5174,-0.5169,-0.5242,-0.5169,-0.517,-0.517,-0.517,-0.517,-0.5646,-0.5616,-0.558,-0.5538,-0.551,-0.5479,-0.5449,-0.5425,-0.5387,-0.534,-0.5329,-0.5282,-0.5246,-0.5186,-0.5162,-0.5125,-0.5129,-0.5117,-0.5114,-0.5111,-0.511,-0.5181,-0.5117,-0.5117,-0.5117,-0.5117,-0.5117,0,-0.5585,-0.5562,-0.5524,-0.5477,-0.5445,-0.5443,-0.5406,-0.5379,-0.5338,-0.5305,-0.5269,-0.5219,-0.5176,-0.5145,-0.5102,-0.5079,-0.5075,-0.5068,-0.5069,-0.5064,-0.5109,-0.512,-0.5072,-0.5072,-0.5072,-0.5072,-0.5072,-0.5072,-0.555,-0.55,-0.5486,-0.5423,-0.54,-0.5354,-0.5333,-0.5305,-0.5278,-0.5223,-0.5188,-0.5168,-0.5136,-0.5091,-0.5053,-0.5045,-0.5029,-0.5023,-0.5015,-0.5056,-0.5061,-0.5066,-0.5076,-0.502,-0.502,-0.4973,-0.4973,-0.4973]}]]